• In Portugal
  • List of Countries
  • For 7 days
  • Water Temperature
  • Satellite Maps
  • Weather Map
  • Weather Widgets
  • user-avatar
    Login

    Hourly Weather Salta

    Today, 22 April, Sunday

    Time Temperature Precipitation Wind Pressure Humidity
    00:00 +21°C° 0 mm 1 mps 650 mmHg 84%
    01:00 +20°C° 0 mm 1 mps 650 mmHg 84%
    02:00 +20°C° 0 mm 1 mps 650 mmHg 85%
    03:00 +20°C° 0 mm 1 mps 649 mmHg 84%
    04:00 +20°C° 0 mm 1 mps 649 mmHg 83%
    05:00 +20°C° 0 mm 1 mps 649 mmHg 82%
    06:00 +21°C° 0 mm 1 mps 650 mmHg 78%
    07:00 +22°C° 0 mm 1 mps 650 mmHg 74%
    08:00 +23°C° 0 mm 1 mps 651 mmHg 70%
    09:00 +25°C° 0 mm 1 mps 651 mmHg 64%
    10:00 +26°C° 0 mm 2 mps 652 mmHg 58%
    11:00 +28°C° 0 mm 2 mps 652 mmHg 51%
    12:00 +29°C° 0.3 mm 3 mps 651 mmHg 50%
    13:00 +29°C° 0.3 mm 3 mps 651 mmHg 49%
    14:00 +30°C° 0.3 mm 3 mps 651 mmHg 48%
    15:00 +29°C° 0.7 mm 3 mps 650 mmHg 52%
    16:00 +28°C° 0.7 mm 2 mps 650 mmHg 56%
    17:00 +27°C° 0.7 mm 2 mps 649 mmHg 59%
    18:00 +25°C° 0.5 mm 2 mps 649 mmHg 65%
    19:00 +24°C° 0.5 mm 1 mps 650 mmHg 71%
    20:00 +22°C° 0.5 mm 1 mps 650 mmHg 77%
    21:00 +22°C° 0.7 mm 1 mps 650 mmHg 77%
    22:00 +22°C° 0.7 mm 1 mps 651 mmHg 77%
    23:00 +22°C° 0.7 mm 1 mps 651 mmHg 77%

    Tomorrow, 23 April, Monday

    Time Temperature Precipitation Wind Pressure Humidity
    00:00 +22°C° 1.1 mm 1 mps 651 mmHg 77%
    01:00 +22°C° 1.1 mm 1 mps 651 mmHg 77%
    02:00 +21°C° 1.1 mm 1 mps 651 mmHg 77%
    03:00 +21°C° 0.9 mm 1 mps 651 mmHg 77%
    04:00 +21°C° 0.9 mm 1 mps 651 mmHg 76%
    05:00 +21°C° 0.9 mm 1 mps 651 mmHg 76%
    06:00 +22°C° 0.4 mm 1 mps 651 mmHg 74%
    07:00 +22°C° 0.4 mm 1 mps 652 mmHg 71%
    08:00 +21°C° 0.4 mm 0 mps 653 mmHg 69%
    09:00 +25°C° 0.5 mm 1 mps 653 mmHg 65%
    10:00 +26°C° 0.5 mm 2 mps 653 mmHg 62%
    11:00 +28°C° 0.5 mm 2 mps 654 mmHg 59%
    12:00 +28°C° 0.7 mm 2 mps 653 mmHg 59%
    13:00 +28°C° 0.7 mm 2 mps 652 mmHg 58%
    14:00 +28°C° 0.7 mm 3 mps 652 mmHg 58%
    15:00 +27°C° 1 mm 2 mps 651 mmHg 63%
    16:00 +26°C° 1 mm 2 mps 651 mmHg 67%
    17:00 +25°C° 1 mm 2 mps 651 mmHg 71%
    18:00 +24°C° 2.8 mm 2 mps 651 mmHg 76%
    19:00 +23°C° 2.8 mm 1 mps 651 mmHg 81%
    20:00 +22°C° 2.8 mm 1 mps 652 mmHg 85%
    21:00 +21°C° 0.9 mm 1 mps 652 mmHg 86%
    22:00 +21°C° 0.9 mm 1 mps 652 mmHg 86%
    23:00 +21°C° 0.9 mm 1 mps 653 mmHg 86%

    Day after tomorrow, 24 April, Tuesday

    Time Temperature Precipitation Wind Pressure Humidity
    00:00 +20°C° 0.9 mm 1 mps 652 mmHg 86%
    01:00 +20°C° 0.9 mm 1 mps 652 mmHg 85%
    02:00 +20°C° 0.9 mm 1 mps 652 mmHg 84%
    03:00 +20°C° 0.3 mm 1 mps 651 mmHg 83%
    04:00 +19°C° 0.3 mm 1 mps 651 mmHg 82%
    05:00 +19°C° 0.3 mm 1 mps 651 mmHg 81%
    06:00 +20°C° 0.1 mm 1 mps 652 mmHg 80%
    07:00 +21°C° 0.1 mm 1 mps 652 mmHg 79%
    08:00 +22°C° 0.1 mm 1 mps 653 mmHg 77%
    09:00 +23°C° 0.2 mm 1 mps 653 mmHg 72%
    10:00 +25°C° 0.2 mm 2 mps 653 mmHg 67%
    11:00 +26°C° 0.2 mm 2 mps 654 mmHg 61%
    12:00 +26°C° 0.1 mm 2 mps 653 mmHg 60%
    13:00 +27°C° 0.1 mm 3 mps 653 mmHg 59%
    14:00 +28°C° 0.1 mm 3 mps 652 mmHg 58%
    15:00 +27°C° 0.1 mm 2 mps 652 mmHg 61%
    16:00 +26°C° 0.1 mm 2 mps 651 mmHg 64%
    17:00 +26°C° 0.1 mm 2 mps 651 mmHg 66%
    18:00 +24°C° 0.1 mm 2 mps 651 mmHg 72%
    19:00 +23°C° 0.1 mm 1 mps 651 mmHg 78%
    20:00 +22°C° 0.1 mm 1 mps 651 mmHg 84%
    21:00 +22°C° 0.2 mm 1 mps 652 mmHg 83%
    22:00 +21°C° 0.2 mm 1 mps 652 mmHg 83%
    23:00 +21°C° 0.2 mm 1 mps 652 mmHg 82%

    25 April, Wednesday

    Time Temperature Precipitation Wind Pressure Humidity
    00:00 +21°C° 0.5 mm 1 mps 652 mmHg 83%
    01:00 +21°C° 0.5 mm 1 mps 652 mmHg 83%
    02:00 +20°C° 0.5 mm 1 mps 652 mmHg 83%
    03:00 +20°C° 0.3 mm 1 mps 652 mmHg 84%
    04:00 +20°C° 0.3 mm 1 mps 651 mmHg 84%
    05:00 +20°C° 0.3 mm 1 mps 651 mmHg 85%
    06:00 +21°C° 0.1 mm 1 mps 652 mmHg 81%
    07:00 +21°C° 0.1 mm 1 mps 653 mmHg 78%
    08:00 +22°C° 0.1 mm 1 mps 653 mmHg 75%
    09:00 +24°C° 0.1 mm 1 mps 654 mmHg 69%
    10:00 +26°C° 0.1 mm 2 mps 654 mmHg 64%
    11:00 +27°C° 0.1 mm 2 mps 654 mmHg 59%
    12:00 +27°C° 0.1 mm 2 mps 654 mmHg 58%
    13:00 +28°C° 0.1 mm 3 mps 653 mmHg 57%
    14:00 +28°C° 0.1 mm 3 mps 652 mmHg 56%
    15:00 +27°C° 0.2 mm 3 mps 652 mmHg 59%
    16:00 +27°C° 0.2 mm 3 mps 651 mmHg 62%
    17:00 +26°C° 0.2 mm 2 mps 651 mmHg 64%
    18:00 +25°C° 0.3 mm 2 mps 651 mmHg 69%
    19:00 +23°C° 0.3 mm 2 mps 651 mmHg 74%
    20:00 +22°C° 0.3 mm 1 mps 651 mmHg 78%
    21:00 +22°C° 0.3 mm 1 mps 651 mmHg 78%
    22:00 +22°C° 0.3 mm 1 mps 652 mmHg 78%
    23:00 +22°C° 0.3 mm 1 mps 652 mmHg 78%

    26 April, Thursday

    Time Temperature Precipitation Wind Pressure Humidity
    00:00 +21°C° 0.2 mm 1 mps 651 mmHg 79%
    01:00 +21°C° 0.2 mm 1 mps 651 mmHg 79%
    02:00 +21°C° 0.2 mm 1 mps 650 mmHg 79%
    03:00 +21°C° 0.1 mm 1 mps 650 mmHg 79%
    04:00 +20°C° 0.1 mm 1 mps 649 mmHg 78%
    05:00 +20°C° 0.1 mm 1 mps 649 mmHg 78%
    06:00 +21°C° 0 mm 1 mps 649 mmHg 76%
    07:00 +22°C° 0 mm 1 mps 650 mmHg 74%
    08:00 +22°C° 0 mm 1 mps 650 mmHg 72%
    09:00 +23°C° 0 mm 1 mps 650 mmHg 66%
    10:00 +25°C° 0 mm 2 mps 651 mmHg 60%
    11:00 +26°C° 0 mm 2 mps 651 mmHg 54%
    12:00 +27°C° 0.2 mm 2 mps 650 mmHg 53%
    13:00 +27°C° 0.2 mm 2 mps 649 mmHg 51%
    14:00 +28°C° 0.2 mm 3 mps 649 mmHg 49%
    15:00 +27°C° 0.4 mm 2 mps 648 mmHg 53%
    16:00 +26°C° 0.4 mm 2 mps 648 mmHg 57%
    17:00 +25°C° 0.4 mm 2 mps 648 mmHg 61%
    18:00 +24°C° 0.1 mm 1 mps 648 mmHg 64%
    19:00 +23°C° 0.1 mm 1 mps 648 mmHg 67%
    20:00 +22°C° 0.1 mm 1 mps 648 mmHg 71%
    21:00 +21°C° 0 mm 1 mps 648 mmHg 72%
    22:00 +21°C° 0 mm 1 mps 648 mmHg 72%
    23:00 +20°C° 0 mm 1 mps 648 mmHg 73%

    27 April, Friday

    Time Temperature Precipitation Wind Pressure Humidity
    00:00 +20°C° 0 mm 1 mps 648 mmHg 69%
    01:00 +19°C° 0 mm 2 mps 648 mmHg 66%
    02:00 +19°C° 0 mm 2 mps 648 mmHg 62%
    03:00 +19°C° 0 mm 2 mps 648 mmHg 59%
    04:00 +19°C° 0 mm 2 mps 647 mmHg 56%
    05:00 +19°C° 0 mm 2 mps 647 mmHg 53%
    06:00 +20°C° 0 mm 2 mps 648 mmHg 51%
    07:00 +20°C° 0 mm 2 mps 649 mmHg 48%
    08:00 +21°C° 0 mm 2 mps 650 mmHg 46%
    09:00 +25°C° 0 mm 2 mps 651 mmHg 39%
    10:00 +28°C° 0 mm 2 mps 652 mmHg 31%
    11:00 +30°C° 0 mm 2 mps 653 mmHg 24%
    12:00 +31°C° 0 mm 2 mps 652 mmHg 23%
    13:00 +31°C° 0 mm 3 mps 652 mmHg 23%
    14:00 +31°C° 0 mm 3 mps 651 mmHg 23%
    15:00 +30°C° 0 mm 3 mps 651 mmHg 29%
    16:00 +29°C° 0 mm 3 mps 651 mmHg 34%
    17:00 +28°C° 0 mm 3 mps 651 mmHg 40%
    18:00 +25°C° 0 mm 3 mps 651 mmHg 49%
    19:00 +23°C° 0 mm 2 mps 651 mmHg 58%
    20:00 +20°C° 0 mm 2 mps 651 mmHg 67%
    21:00 +20°C° 0 mm 1 mps 652 mmHg 71%
    22:00 +20°C° 0 mm 1 mps 652 mmHg 75%
    23:00 +19°C° 0 mm 1 mps 652 mmHg 79%
    Show more